Location: Nitra
(0.0000°N, 18.0833°E)
Time: 20:22:58
(UTC+02:00)

A-11 Canister half - Pass Details

Date: 07 April 2023
Orbit: 1526 x 1682 km, 47.3° (Epoch: 08 June)

Event Time Altitude Azimuth Distance (km) Brightness Sun altitude
Rises 11:40:35 0° 241° (WSW) 4,848 11.4 71.4°
Reaches altitude 10° 11:44:05 10° 250° (WSW) 3,881 11.1 72.2°
Maximum altitude 11:52:45 34° 311° (NW) 2,499 10.6 74.2°
Drops below altitude 10° 12:01:34 10° 12° (NNE) 3,932 11.4 76.2°
Sets 12:05:12 0° 22° (NNE) 4,920 11.8 76.9°
